Wind_Speed
5 5 4 4 3 3 4 3 2 1 0 0 1 2 2 2 2 3 3 3 3 4 4 4 4 4 5 5 5 5 5 6 7 7 7 7 7 7 7 7 8 9 8 7 7 7 8 7 7
5 5 5 4 4 4 4 3 2 3 2 1 2 3 3 3 3 3 3 4 4 4 5 5 5 5 6 6 6 6 6 6 7 7 7 7 8 8 8 8 8 8 8 8 8 8 7 7 7
5 5 5 5 5 5 4 3 3 3 3 3 3 4 4 4 4 4 4 4 5 5 6 6 6 6 6 7 7 7 7 6 7 7 7 7 8 9 9 7 6 6 6 7 8 8 8 8 7
5 5 6 6 6 5 5 4 4 3 4 4 4 4 5 4 4 4 4 5 6 6 6 6 7 7 7 7 7 7 7 7 6 6 7 7 8 8 8 7 6 6 6 7 8 9 9 8 8
5 5 6 6 7 6 5 5 4 4 5 5 5 5 5 5 5 5 5 5 6 6 6 7 8 8 8 8 7 7 7 7 7 7 7 7 7 8 8 8 7 7 7 7 8 8 8 8 7
6 5 6 7 8 7 6 5 5 5 5 5 5 6 6 5 5 6 6 6 6 6 7 7 8 8 8 8 8 8 7 7 7 7 7 7 7 7 8 8 7 7 7 7 7 7 7 7 7
7 6 7 8 8 7 7 6 5 5 5 5 5 6 5 6 5 6 6 7 7 7 8 8 8 8 8 8 8 8 8 8 7 7 8 8 7 7 7 8 7 7 7 7 7 7 7 7 7
7 7 7 7 8 8 7 7 7 7 6 6 6 6 5 6 6 6 7 7 7 8 9 9 9 8 8 8 8 8 9 8 8 8 8 8 8 8 8 7 7 7 7 7 7 7 6 6 6
8 8 7 7 7 8 8 8 7 7 7 7 7 7 6 6 7 7 8 8 9 9 10 10 9 9 8 8 9 8 9 9 9 8 8 8 8 8 8 7 7 7 6 6 6 6 6 6 6
8 8 8 8 8 8 8 8 8 8 8 8 8 8 7 7 7 8 8 8 9 10 10 10 10 9 9 9 9 9 9 9 9 8 8 8 8 8 8 7 7 7 6 6 6 6 6 5 6
9 9 8 8 8 8 8 8 8 8 8 8 8 8 8 8 8 8 8 9 9 10 10 10 10 10 10 9 9 9 9 9 9 9 9 9 8 9 8 8 7 7 6 6 6 6 6 5 6
9 9 9 9 8 9 9 9 9 9 9 9 8 8 8 9 9 9 9 10 10 10 10 10 9 9 10 8 8 9 10 9 9 10 10 10 9 9 9 8 7 7 7 6 6 6 5 5 6
9 9 9 9 9 9 9 9 9 9 9 9 9 9 9 9 10 11 10 11 10 10 9 9 9 9 9 9 9 10 10 10 10 10 10 10 9 8 8 7 7 7 7 6 6 6 5 6 6
10 9 9 10 9 9 9 9 9 8 9 9 10 10 10 10 10 11 11 11 10 9 9 8 8 8 8 9 9 10 10 10 10 10 9 9 8 7 7 7 7 7 7 7 6 6 6 7 6
10 9 9 10 10 9 9 9 8 8 8 9 10 10 10 10 10 10 10 10 10 9 8 8 8 9 9 9 9 10 10 10 9 8 8 8 7 7 7 7 7 7 7 7 7 7 7 7 7
10 9 8 9 9 9 9 9 8 8 8 8 9 9 9 10 9 9 10 10 9 9 9 9 9 9 9 9 9 9 9 9 8 8 8 8 8 7 7 7 7 6 6 6 7 7 8 8 8
10 9 9 9 9 9 9 8 9 9 8 8 9 9 9 9 9 9 9 10 10 10 10 10 10 10 9 9 9 9 9 9 8 8 8 8 7 8 7 7 7 7 7 7 8 8 8 8 8
10 10 10 9 9 9 9 9 9 9 9 8 9 9 9 10 10 10 10 10 10 10 11 10 10 10 9 9 10 10 10 9 8 8 8 8 8 8 7 7 8 7 7 8 8 8 8 8 8
11 11 11 10 9 9 9 9 9 9 8 8 9 9 9 10 10 10 9 9 10 10 11 11 10 9 9 9 9 9 9 9 9 9 9 8 8 8 7 7 7 8 7 8 8 9 9 9 9
12 11 11 10 10 9 9 9 9 10 9 9 9 9 9 9 9 9 9 9 9 9 10 10 9 9 9 10 10 9 10 10 10 10 9 9 9 8 8 8 8 8 8 8 9 9 10 10 9
11 11 10 10 10 10 10 9 9 9 9 8 8 8 8 8 8 8 8 8 8 8 8 8 8 8 9 9 9 9 9 9 9 9 9 9 9 9 9 9 9 9 9 10 10 10 10 10 10
10 10 10 11 10 10 10 9 9 9 9 8 8 8 8 7 7 7 7 7 8 8 8 8 8 8 8 8 8 9 9 9 9 10 10 10 9 10 10 10 10 10 10 10 10 11 11 11 11
11 11 11 10 10 10 10 10 8 8 9 8 8 7 7 7 7 7 8 8 8 9 9 9 9 8 8 8 9 9 9 9 9 10 10 10 10 10 10 10 11 11 11 10 11 11 11 11 10
12 12 12 11 11 11 10 10 9 8 8 8 7 7 7 7 8 8 8 8 9 9 9 9 9 9 9 9 9 9 9 9 10 10 10 9 9 9 10 10 11 11 11 11 12 11 10 10 10
12 13 13 12 12 11 11 11 10 9 9 8 8 8 8 8 9 9 9 9 9 9 9 10 10 10 10 10 10 10 10 10 10 10 10 10 10 10 10 10 10 11 11 11 11 10 10 10 10
12 13 13 13 13 12 13 13 11 10 10 10 10 9 9 9 10 10 9 10 10 11 11 11 11 11 11 12 12 11 12 11 11 11 10 11 11 11 11 11 11 11 11 11 11 10 10 10 10
12 13 14 15 15 15 14 14 13 12 12 11 11 11 10 10 11 11 11 11 11 11 12 12 12 12 12 12 12 12 12 12 12 12 12 12 12 12 12 12 11 11 11 12 12 11 12 12 12
12 13 14 15 16 16 15 15 13 12 12 12 12 12 11 11 11 11 12 12 12 12 12 12 12 12 12 12 12 13 13 13 13 13 13 13 13 12 12 12 12 12 12 13 13 13 13 13 13
13 14 15 16 17 16 16 15 14 13 13 14 13 13 13 13 13 13 13 14 14 14 14 14 14 13 13 12 13 13 13 13 14 13 14 14 14 14 13 13 13 14 14 14 14 14 14 14 15
14 15 15 16 17 17 18 16 15 15 15 15 15 14 14 15 14 14 15 15 15 15 15 15 15 15 15 15 14 14 14 14 14 14 15 15 15 16 16 15 15 15 15 15 15 15 16 16 15
Wind_Direction
209 208 205 201 207 219 229 232 216 204 165 269 279 285 294 296 299 296 306 312 320 324 329 333 337 342 339 338 333 328 316 306 298 291 289 292 292 293 290 288 284 274 263 261 264 269 269 270 267
212 213 211 213 223 232 232 233 219 235 259 274 283 287 286 297 299 287 291 302 308 314 318 320 319 323 321 322 321 322 317 312 305 294 289 288 290 289 289 291 289 280 262 259 267 272 274 273 270
222 222 222 226 232 243 247 246 243 249 269 278 282 281 281 292 293 283 286 293 299 306 309 310 313 310 309 314 316 318 316 311 305 301 295 289 287 284 283 289 291 281 261 259 264 271 276 276 270
228 230 231 234 239 245 254 262 263 269 275 278 282 284 282 284 287 282 288 294 297 306 309 308 308 308 306 307 310 309 309 307 300 295 295 292 289 289 284 286 286 279 271 266 266 268 271 272 272
235 238 243 247 249 250 258 264 266 277 281 281 283 285 286 283 283 283 291 299 300 305 310 309 306 307 304 304 304 303 300 299 299 297 295 297 292 288 288 284 281 279 278 275 272 268 268 268 270
243 243 247 250 256 257 260 262 273 278 280 284 285 287 287 281 279 282 291 296 298 303 307 307 305 304 304 302 302 300 298 297 296 296 296 293 292 290 290 283 284 284 281 279 274 269 268 264 266
245 246 246 249 256 259 262 261 263 275 285 286 288 292 288 279 279 283 286 291 296 297 300 302 302 303 302 299 299 300 298 295 292 291 291 290 291 290 287 284 283 280 280 279 274 272 269 267 267
247 249 249 249 252 257 263 266 267 273 280 284 286 287 284 281 282 284 284 288 291 293 294 295 297 297 295 295 299 296 295 293 290 288 288 287 286 286 286 286 287 284 279 277 276 273 269 265 267
250 252 253 252 254 257 260 265 268 273 277 280 283 285 285 286 282 280 282 287 290 291 291 292 294 292 289 288 293 293 293 289 288 285 281 280 281 281 282 282 282 281 281 281 278 276 279 273 270
256 252 256 260 261 262 262 263 267 271 271 275 279 282 283 288 285 282 282 285 289 289 288 288 288 287 283 281 284 284 285 286 285 283 277 277 278 281 278 276 277 281 280 278 279 286 280 277 272
262 259 266 270 270 269 269 268 268 271 271 272 275 277 280 282 286 285 286 289 288 287 288 289 285 284 281 280 280 280 282 284 285 283 282 281 282 286 280 277 272 275 274 275 285 289 290 284 278
261 261 265 268 266 268 271 270 269 270 272 273 273 275 278 279 283 285 289 291 290 287 285 285 281 283 283 284 283 282 282 283 283 279 280 281 284 285 283 282 277 275 281 283 286 293 289 282 278
262 264 264 266 267 269 268 265 266 266 269 272 274 277 279 280 283 285 288 289 288 288 284 283 280 282 283 284 285 283 282 280 280 280 280 281 284 287 287 291 288 286 288 287 287 287 286 283 278
261 262 264 266 268 270 269 266 265 264 268 273 276 280 282 281 282 284 285 288 290 289 288 287 283 279 280 280 283 286 284 282 280 280 280 281 280 280 282 284 284 284 284 282 279 280 282 284 282
260 262 265 266 266 268 269 270 266 264 268 276 277 279 280 281 281 283 286 290 291 289 291 289 287 283 280 282 286 287 285 282 277 277 281 283 279 277 277 278 278 279 279 279 278 280 280 282 282
262 261 263 265 266 264 264 266 266 267 270 275 278 280 282 282 281 282 283 286 284 284 288 289 288 286 284 283 282 283 283 281 277 272 276 282 285 284 278 275 278 279 278 279 283 283 284 283 283
261 260 261 264 265 264 263 263 266 267 269 274 277 279 281 282 281 279 280 280 278 279 283 287 286 286 282 278 276 280 281 279 278 275 273 277 283 282 277 275 275 276 276 279 285 289 288 285 283
261 259 262 266 267 264 263 262 263 266 270 274 276 279 281 283 281 280 282 280 280 284 287 287 284 284 280 277 278 279 280 276 277 276 272 276 277 279 275 272 273 274 277 279 280 285 285 285 283
259 261 264 266 266 266 265 263 264 269 273 276 278 278 279 281 279 280 283 284 285 289 290 287 283 281 280 279 280 281 279 279 279 279 279 276 272 272 272 273 274 280 283 282 282 284 287 286 281
259 261 266 266 264 265 265 264 264 268 272 279 282 284 281 278 276 277 278 279 284 288 290 286 282 280 279 277 275 280 279 277 274 275 276 275 268 265 266 270 273 279 281 282 285 288 290 287 284
260 261 266 267 265 265 267 266 265 267 273 278 282 283 280 279 279 276 274 276 281 288 290 289 287 284 282 279 274 275 276 274 272 272 273 273 269 263 263 268 273 278 282 283 285 287 289 289 287
259 260 263 262 259 262 265 267 267 267 270 274 276 276 275 275 277 272 270 274 281 285 287 287 287 286 282 279 277 274 273 273 272 270 272 273 268 265 267 269 273 279 281 282 284 286 288 289 287
256 258 260 260 262 263 264 266 262 264 268 268 267 274 275 274 276 271 271 271 279 282 283 286 286 285 283 281 281 278 276 274 274 272 274 273 267 266 272 274 274 274 276 278 283 284 284 286 285
257 256 258 258 263 265 267 270 261 257 265 268 268 276 277 273 274 275 274 274 277 278 280 283 287 284 282 282 282 282 280 277 277 276 273 271 272 273 274 278 276 274 276 279 281 281 283 283 285
258 256 256 258 259 262 267 272 270 264 263 268 275 277 278 277 275 276 278 278 276 277 280 283 284 284 282 282 282 280 283 282 280 278 272 269 272 273 274 276 276 277 276 277 278 282 282 282 282
263 259 258 260 261 260 264 267 273 268 265 267 272 275 276 277 275 276 278 279 278 278 280 283 284 285 283 282 281 277 279 277 276 277 273 274 273 273 272 273 275 278 278 277 280 282 283 285 284
258 255 259 262 262 262 263 266 269 270 268 267 270 273 275 275 273 275 275 275 277 279 279 279 280 282 282 280 278 277 276 274 273 272 272 275 276 273 271 272 273 273 276 277 281 281 281 284 285
259 258 261 261 261 264 268 266 265 266 270 274 271 272 273 273 275 275 276 276 276 277 278 279 280 282 282 279 277 277 275 273 272 272 273 274 276 274 271 271 274 275 276 276 276 277 278 280 283
263 261 263 259 261 265 268 265 266 270 272 273 272 272 274 276 278 279 278 278 277 277 278 279 278 279 279 279 279 278 275 274 273 272 272 273 274 274 273 274 275 274 275 277 278 278 276 276 279
264 262 263 263 263 265 268 265 264 266 269 271 270 271 274 275 276 278 278 276 276 276 276 276 276 277 277 277 277 277 276 274 273 273 274 272 272 271 271 270 274 276 276 278 278 278 277 275 276
Height
5891 5891 5892 5893 5894 5893 5892 5893 5892 5892 5892 5892 5892 5893 5893 5893 5894 5895 5892 5891 5890 5890 5889 5889 5888 5887 5887 5886 5885 5885 5884 5884 5883 5882 5882 5881 5880 5879 5878 5877 5875 5873 5873 5875 5875 5875 5875 5875 5874
5891 5891 5892 5893 5892 5892 5893 5892 5892 5892 5892 5892 5892 5892 5892 5892 5892 5891 5891 5890 5890 5889 5889 5888 5887 5887 5886 5886 5885 5884 5884 5883 5882 5881 5881 5880 5879 5878 5877 5875 5872 5869 5870 5872 5874 5874 5874 5874 5873
5890 5891 5892 5892 5891 5892 5892 5892 5891 5891 5891 5891 5891 5891 5892 5891 5891 5890 5890 5889 5889 5888 5888 5887 5887 5886 5886 5885 5884 5884 5883 5882 5881 5880 5879 5879 5878 5877 5876 5874 5872 5869 5869 5871 5872 5873 5873 5872 5872
5890 5891 5891 5891 5890 5891 5891 5891 5891 5891 5890 5891 5890 5890 5890 5890 5890 5889 5889 5889 5888 5887 5887 5886 5886 5885 5885 5884 5883 5883 5882 5881 5880 5879 5878 5878 5877 5876 5875 5874 5872 5871 5870 5871 5871 5871 5871 5871 5871
5889 5890 5890 5889 5889 5889 5889 5889 5890 5890 5889 5889 5889 5889 5889 5889 5889 5888 5888 5887 5887 5886 5886 5885 5885 5884 5883 5883 5882 5881 5880 5880 5879 5878 5877 5876 5875 5874 5874 5872 5872 5871 5870 5870 5870 5870 5870 5870 5869
5888 5888 5889 5888 5888 5888 5888 5888 5888 5888 5888 5888 5888 5888 5887 5888 5887 5887 5886 5886 5885 5885 5884 5884 5883 5883 5882 5881 5881 5880 5879 5878 5877 5877 5876 5875 5874 5873 5872 5871 5871 5870 5869 5869 5869 5869 5868 5868 5868
5888 5887 5887 5887 5887 5887 5887 5887 5887 5887 5887 5887 5887 5886 5886 5886 5886 5885 5885 5884 5884 5884 5883 5882 5882 5881 5881 5880 5879 5879 5878 5877 5876 5875 5874 5874 5873 5872 5871 5870 5869 5869 5868 5868 5867 5867 5867 5867 5866
5885 5886 5885 5885 5885 5886 5886 5885 5885 5885 5885 5885 5885 5885 5884 5884 5884 5883 5883 5883 5882 5882 5881 5881 5880 5880 5879 5878 5878 5877 5876 5875 5874 5874 5873 5872 5871 5870 5870 5869 5868 5867 5867 5866 5866 5865 5865 5865 5865
5884 5885 5884 5884 5884 5884 5883 5884 5884 5884 5883 5883 5883 5883 5883 5883 5882 5882 5881 5881 5880 5880 5879 5879 5878 5878 5877 5877 5876 5875 5874 5873 5873 5872 5871 5870 5869 5869 5868 5867 5866 5866 5865 5865 5864 5864 5864 5864 5863
5882 5882 5882 5882 5882 5882 5881 5882 5882 5882 5882 5882 5881 5881 5881 5881 5880 5880 5880 5879 5879 5878 5877 5877 5876 5876 5875 5874 5874 5873 5872 5871 5871 5870 5869 5868 5867 5867 5866 5865 5865 5864 5864 5863 5863 5863 5863 5862 5862
5880 5880 5880 5880 5880 5879 5879 5880 5880 5880 5880 5880 5879 5879 5879 5879 5878 5878 5877 5877 5876 5876 5875 5874 5874 5873 5872 5872 5871 5871 5870 5869 5869 5868 5867 5866 5865 5864 5864 5863 5863 5862 5862 5862 5861 5861 5861 5861 5861
5878 5878 5878 5878 5877 5877 5878 5877 5878 5878 5878 5878 5877 5877 5877 5877 5876 5876 5875 5875 5874 5873 5873 5872 5871 5871 5870 5869 5869 5868 5867 5867 5866 5865 5865 5864 5863 5862 5862 5862 5861 5861 5860 5860 5860 5860 5859 5859 5859
5876 5876 5876 5876 5875 5875 5875 5875 5876 5875 5875 5875 5875 5875 5874 5874 5874 5873 5873 5872 5872 5871 5870 5869 5869 5868 5867 5867 5866 5866 5865 5864 5864 5863 5862 5862 5861 5860 5860 5860 5859 5859 5859 5859 5858 5858 5858 5858 5857
5874 5874 5874 5874 5873 5873 5873 5873 5873 5873 5873 5873 5872 5872 5872 5872 5871 5871 5870 5870 5869 5868 5867 5867 5866 5865 5865 5864 5864 5863 5862 5862 5861 5861 5860 5860 5859 5859 5858 5858 5858 5858 5857 5857 5857 5857 5856 5856 5856
5871 5872 5872 5871 5871 5870 5871 5871 5871 5871 5870 5870 5870 5870 5869 5869 5869 5868 5867 5866 5866 5865 5865 5864 5863 5863 5862 5861 5861 5860 5860 5859 5859 5858 5858 5857 5857 5857 5857 5857 5856 5856 5856 5855 5855 5855 5855 5854 5854
5869 5869 5869 5869 5868 5868 5870 5869 5868 5868 5868 5868 5867 5867 5866 5866 5866 5865 5865 5864 5864 5863 5862 5861 5861 5860 5859 5859 5858 5858 5857 5856 5856 5856 5855 5855 5855 5855 5855 5855 5854 5854 5854 5853 5853 5853 5853 5852 5851
5866 5867 5866 5866 5865 5865 5866 5866 5866 5866 5866 5865 5865 5864 5864 5864 5863 5863 5862 5862 5861 5860 5859 5859 5858 5857 5857 5856 5855 5855 5854 5854 5853 5853 5853 5853 5853 5853 5853 5852 5852 5852 5852 5852 5851 5851 5850 5850 5849
5864 5863 5864 5864 5863 5863 5863 5864 5863 5863 5863 5863 5862 5862 5862 5861 5861 5860 5860 5859 5858 5857 5857 5856 5855 5855 5854 5853 5853 5852 5852 5851 5851 5851 5851 5850 5850 5850 5850 5850 5850 5850 5850 5849 5849 5849 5848 5848 5847
5861 5861 5861 5861 5860 5860 5861 5861 5861 5860 5860 5860 5860 5859 5859 5858 5858 5857 5857 5856 5855 5855 5854 5853 5852 5852 5851 5851 5850 5850 5849 5848 5848 5848 5848 5848 5848 5848 5848 5848 5848 5848 5848 5847 5847 5846 5846 5845 5845
5858 5858 5858 5858 5858 5858 5858 5858 5858 5858 5858 5857 5857 5856 5856 5856 5855 5855 5855 5854 5853 5853 5852 5851 5850 5849 5848 5848 5847 5847 5846 5846 5845 5845 5845 5845 5845 5845 5846 5846 5846 5845 5845 5845 5844 5844 5843 5842 5842
5855 5855 5855 5855 5855 5855 5856 5856 5856 5855 5855 5855 5854 5854 5854 5853 5853 5852 5852 5851 5851 5850 5849 5848 5847 5846 5845 5845 5844 5844 5843 5843 5843 5843 5843 5842 5842 5843 5843 5843 5843 5843 5842 5842 5841 5841 5840 5839 5839
5852 5852 5852 5852 5852 5852 5853 5853 5853 5852 5852 5852 5852 5851 5851 5851 5850 5850 5850 5849 5848 5848 5847 5845 5844 5844 5843 5842 5842 5841 5841 5841 5840 5840 5840 5839 5839 5840 5840 5840 5840 5840 5839 5839 5838 5838 5837 5836 5835
5849 5849 5849 5849 5849 5850 5850 5850 5851 5850 5849 5849 5849 5849 5848 5848 5848 5847 5847 5847 5846 5845 5844 5843 5842 5841 5840 5840 5839 5839 5838 5838 5837 5837 5837 5837 5837 5837 5837 5837 5837 5837 5836 5836 5835 5834 5834 5833 5832
5847 5847 5847 5846 5847 5847 5847 5847 5848 5847 5847 5846 5846 5846 5845 5845 5845 5845 5844 5844 5843 5843 5842 5841 5840 5838 5838 5837 5836 5836 5836 5835 5835 5834 5834 5834 5834 5834 5834 5834 5834 5833 5833 5833 5832 5831 5831 5830 5829
5844 5844 5844 5844 5844 5844 5844 5843 5845 5844 5844 5843 5843 5843 5843 5843 5842 5842 5842 5841 5841 5840 5839 5838 5837 5836 5835 5834 5834 5833 5833 5832 5832 5831 5831 5831 5831 5831 5831 5831 5831 5830 5830 5829 5829 5828 5828 5827 5826
5841 5841 5842 5842 5841 5841 5841 5840 5841 5841 5840 5840 5840 5840 5840 5840 5839 5839 5839 5838 5838 5837 5836 5835 5834 5833 5832 5831 5830 5830 5830 5829 5829 5828 5828 5828 5828 5828 5828 5828 5828 5827 5826 5826 5825 5825 5825 5824 5824
5837 5837 5838 5838 5837 5837 5837 5837 5837 5837 5837 5837 5837 5837 5837 5836 5836 5835 5835 5835 5834 5834 5833 5832 5831 5829 5828 5827 5827 5827 5826 5826 5825 5825 5825 5825 5825 5825 5825 5825 5824 5824 5823 5823 5822 5822 5822 5821 5821
5834 5834 5834 5834 5833 5833 5834 5833 5834 5833 5833 5833 5833 5833 5833 5833 5832 5832 5831 5831 5831 5830 5829 5828 5828 5826 5825 5824 5823 5823 5823 5822 5822 5822 5822 5821 5821 5821 5821 5821 5821 5821 5820 5820 5819 5819 5818 5818 5817
5831 5830 5829 5829 5829 5829 5829 5832 5830 5830 5830 5830 5830 5829 5829 5829 5829 5828 5828 5827 5827 5826 5825 5825 5824 5823 5822 5821 5820 5819 5819 5819 5818 5818 5818 5818 5818 5818 5818 5818 5817 5817 5817 5816 5816 5815 5815 5814 5813
5826 5826 5826 5826 5825 5825 5825 5829 5826 5826 5825 5825 5825 5825 5825 5825 5825 5824 5824 5823 5822 5822 5821 5820 5820 5819 5818 5817 5817 5816 5816 5815 5815 5814 5814 5814 5814 5814 5814 5814 5813 5813 5812 5812 5811 5811 5810 5810 5809